• In Uzbekistan
  • List of Countries
  • For 7 days
  • Water Temperature
  • Satellite Maps
  • Weather Map
  • Weather Widgets
  • user-avatar
    Login

    Hourly Weather Tbilisi

    Today, 19 August, Saturday

    Time Temperature Precipitation Wind Pressure Humidity
    00:00 +21°C° 0 mm 2 mps 702 mmHg 59%
    01:00 +20°C° 0 mm 2 mps 702 mmHg 60%
    02:00 +20°C° 0 mm 2 mps 702 mmHg 60%
    03:00 +20°C° 0 mm 2 mps 702 mmHg 61%
    04:00 +20°C° 0 mm 2 mps 702 mmHg 61%
    05:00 +20°C° 0 mm 2 mps 703 mmHg 61%
    06:00 +20°C° 0 mm 2 mps 703 mmHg 61%
    07:00 +21°C° 0 mm 2 mps 703 mmHg 56%
    08:00 +24°C° 0 mm 2 mps 703 mmHg 50%
    09:00 +26°C° 0 mm 2 mps 703 mmHg 44%
    10:00 +28°C° 0.2 mm 3 mps 703 mmHg 43%
    11:00 +29°C° 0.2 mm 3 mps 703 mmHg 41%
    12:00 +30°C° 0.2 mm 4 mps 703 mmHg 40%
    13:00 +32°C° 0.2 mm 4 mps 703 mmHg 37%
    14:00 +33°C° 0.2 mm 4 mps 703 mmHg 34%
    15:00 +33°C° 0.2 mm 4 mps 703 mmHg 32%
    16:00 +33°C° 0 mm 4 mps 703 mmHg 33%
    17:00 +32°C° 0 mm 4 mps 703 mmHg 34%
    18:00 +30°C° 0 mm 3 mps 703 mmHg 35%
    19:00 +28°C° 0 mm 3 mps 703 mmHg 39%
    20:00 +26°C° 0 mm 3 mps 703 mmHg 42%
    21:00 +24°C° 0 mm 2 mps 703 mmHg 46%
    22:00 +23°C° 0 mm 2 mps 703 mmHg 48%
    23:00 +21°C° 0 mm 2 mps 703 mmHg 49%

    Tomorrow, 20 August, Sunday

    Time Temperature Precipitation Wind Pressure Humidity
    00:00 +21°C° 0 mm 2 mps 703 mmHg 51%
    01:00 +20°C° 0.1 mm 2 mps 703 mmHg 52%
    02:00 +19°C° 0.1 mm 2 mps 703 mmHg 54%
    03:00 +19°C° 0.1 mm 2 mps 703 mmHg 55%
    04:00 +18°C° 0 mm 2 mps 703 mmHg 54%
    05:00 +18°C° 0 mm 2 mps 703 mmHg 54%
    06:00 +18°C° 0 mm 2 mps 703 mmHg 53%
    07:00 +21°C° 0 mm 2 mps 703 mmHg 45%
    08:00 +25°C° 0 mm 2 mps 703 mmHg 36%
    09:00 +27°C° 0 mm 2 mps 703 mmHg 28%
    10:00 +29°C° 0 mm 3 mps 703 mmHg 25%
    11:00 +30°C° 0 mm 3 mps 703 mmHg 23%
    12:00 +32°C° 0 mm 4 mps 702 mmHg 21%
    13:00 +33°C° 0 mm 4 mps 702 mmHg 21%
    14:00 +34°C° 0 mm 4 mps 702 mmHg 20%
    15:00 +34°C° 0 mm 5 mps 702 mmHg 19%
    16:00 +33°C° 0 mm 4 mps 702 mmHg 21%
    17:00 +31°C° 0 mm 3 mps 702 mmHg 23%
    18:00 +30°C° 0 mm 3 mps 701 mmHg 25%
    19:00 +28°C° 0 mm 3 mps 702 mmHg 28%
    20:00 +25°C° 0 mm 3 mps 702 mmHg 31%
    21:00 +22°C° 0 mm 3 mps 702 mmHg 34%
    22:00 +21°C° 0 mm 3 mps 702 mmHg 35%
    23:00 +21°C° 0 mm 2 mps 702 mmHg 37%

    Day after tomorrow, 21 August, Monday

    Time Temperature Precipitation Wind Pressure Humidity
    00:00 +20°C° 0 mm 2 mps 702 mmHg 39%
    01:00 +20°C° 0 mm 2 mps 702 mmHg 41%
    02:00 +19°C° 0 mm 2 mps 702 mmHg 44%
    03:00 +19°C° 0 mm 2 mps 702 mmHg 46%
    04:00 +19°C° 0 mm 2 mps 702 mmHg 47%
    05:00 +19°C° 0 mm 2 mps 702 mmHg 48%
    06:00 +18°C° 0 mm 2 mps 701 mmHg 48%
    07:00 +21°C° 0 mm 2 mps 701 mmHg 42%
    08:00 +25°C° 0 mm 1 mps 702 mmHg 35%
    09:00 +28°C° 0 mm 1 mps 702 mmHg 28%
    10:00 +29°C° 0 mm 2 mps 701 mmHg 26%
    11:00 +31°C° 0 mm 2 mps 701 mmHg 24%
    12:00 +33°C° 0 mm 3 mps 701 mmHg 22%
    13:00 +34°C° 0 mm 3 mps 701 mmHg 21%
    14:00 +35°C° 0 mm 3 mps 700 mmHg 20%
    15:00 +35°C° 0 mm 3 mps 700 mmHg 19%
    16:00 +34°C° 0 mm 3 mps 700 mmHg 21%
    17:00 +33°C° 0 mm 3 mps 700 mmHg 23%
    18:00 +31°C° 0 mm 2 mps 700 mmHg 25%
    19:00 +28°C° 0 mm 2 mps 700 mmHg 28%
    20:00 +26°C° 0 mm 2 mps 700 mmHg 31%
    21:00 +23°C° 0 mm 2 mps 700 mmHg 34%
    22:00 +23°C° 0 mm 2 mps 700 mmHg 34%
    23:00 +21°C° 0 mm 2 mps 700 mmHg 34%

    22 August, Tuesday

    Time Temperature Precipitation Wind Pressure Humidity
    00:00 +20°C° 0 mm 2 mps 700 mmHg 35%
    01:00 +20°C° 0 mm 2 mps 700 mmHg 36%
    02:00 +20°C° 0 mm 2 mps 700 mmHg 38%
    03:00 +19°C° 0 mm 2 mps 700 mmHg 39%
    04:00 +19°C° 0 mm 2 mps 700 mmHg 41%
    05:00 +19°C° 0 mm 2 mps 700 mmHg 42%
    06:00 +19°C° 0 mm 2 mps 700 mmHg 43%
    07:00 +23°C° 0 mm 2 mps 700 mmHg 37%
    08:00 +26°C° 0 mm 2 mps 700 mmHg 32%
    09:00 +29°C° 0 mm 2 mps 700 mmHg 26%
    10:00 +30°C° 0 mm 2 mps 700 mmHg 24%
    11:00 +33°C° 0 mm 3 mps 700 mmHg 22%
    12:00 +34°C° 0 mm 3 mps 699 mmHg 20%
    13:00 +35°C° 0 mm 3 mps 699 mmHg 19%
    14:00 +35°C° 0 mm 3 mps 699 mmHg 18%
    15:00 +36°C° 0 mm 4 mps 699 mmHg 17%
    16:00 +35°C° 0 mm 3 mps 699 mmHg 19%
    17:00 +34°C° 0 mm 3 mps 699 mmHg 21%
    18:00 +32°C° 0 mm 2 mps 699 mmHg 23%
    19:00 +29°C° 0 mm 2 mps 699 mmHg 26%
    20:00 +26°C° 0 mm 2 mps 699 mmHg 29%
    21:00 +24°C° 0 mm 2 mps 700 mmHg 32%
    22:00 +23°C° 0 mm 2 mps 700 mmHg 32%
    23:00 +23°C° 0 mm 2 mps 700 mmHg 33%

    23 August, Wednesday

    Time Temperature Precipitation Wind Pressure Humidity
    00:00 +21°C° 0 mm 2 mps 700 mmHg 34%
    01:00 +21°C° 0 mm 2 mps 700 mmHg 35%
    02:00 +20°C° 0 mm 2 mps 700 mmHg 36%
    03:00 +20°C° 0 mm 2 mps 700 mmHg 38%
    04:00 +20°C° 0 mm 2 mps 700 mmHg 39%
    05:00 +21°C° 0 mm 1 mps 700 mmHg 40%
    06:00 +21°C° 0 mm 1 mps 701 mmHg 41%
    07:00 +23°C° 0 mm 1 mps 701 mmHg 35%
    08:00 +26°C° 0 mm 1 mps 701 mmHg 30%
    09:00 +29°C° 0 mm 1 mps 702 mmHg 24%
    10:00 +31°C° 0 mm 2 mps 702 mmHg 22%
    11:00 +33°C° 0 mm 3 mps 702 mmHg 20%
    12:00 +34°C° 0 mm 3 mps 701 mmHg 18%
    13:00 +35°C° 0 mm 3 mps 701 mmHg 17%
    14:00 +35°C° 0 mm 3 mps 701 mmHg 17%
    15:00 +36°C° 0 mm 3 mps 701 mmHg 16%
    16:00 +34°C° 0 mm 3 mps 702 mmHg 19%
    17:00 +32°C° 0 mm 2 mps 702 mmHg 21%
    18:00 +31°C° 0 mm 1 mps 702 mmHg 24%
    19:00 +28°C° 0 mm 2 mps 703 mmHg 30%
    20:00 +26°C° 0 mm 2 mps 703 mmHg 35%
    21:00 +24°C° 0 mm 2 mps 704 mmHg 41%
    22:00 +23°C° 0 mm 2 mps 704 mmHg 45%
    23:00 +21°C° 0 mm 2 mps 704 mmHg 50%

    24 August, Thursday

    Time Temperature Precipitation Wind Pressure Humidity
    00:00 +20°C° 0 mm 2 mps 704 mmHg 55%
    01:00 +20°C° 0 mm 2 mps 704 mmHg 56%
    02:00 +20°C° 0 mm 2 mps 704 mmHg 57%
    03:00 +19°C° 0 mm 2 mps 704 mmHg 58%
    04:00 +19°C° 0 mm 2 mps 705 mmHg 56%
    05:00 +20°C° 0 mm 1 mps 705 mmHg 55%
    06:00 +21°C° 0 mm 1 mps 705 mmHg 53%
    07:00 +23°C° 0 mm 1 mps 705 mmHg 46%
    08:00 +26°C° 0 mm 1 mps 705 mmHg 39%
    09:00 +29°C° 0 mm 1 mps 705 mmHg 31%
    10:00 +30°C° 0 mm 3 mps 705 mmHg 27%
    11:00 +33°C° 0 mm 4 mps 705 mmHg 23%
    12:00 +34°C° 0 mm 5 mps 705 mmHg 20%
    13:00 +34°C° 0 mm 5 mps 705 mmHg 19%
    14:00 +35°C° 0 mm 5 mps 705 mmHg 18%
    15:00 +35°C° 0 mm 5 mps 704 mmHg 18%
    16:00 +34°C° 0 mm 5 mps 705 mmHg 19%
    17:00 +33°C° 0 mm 4 mps 705 mmHg 21%
    18:00 +30°C° 0 mm 3 mps 705 mmHg 23%
    19:00 +28°C° 0 mm 3 mps 705 mmHg 25%
    20:00 +26°C° 0 mm 3 mps 705 mmHg 27%
    21:00 +23°C° 0 mm 2 mps 705 mmHg 29%
    22:00 +23°C° 0 mm 2 mps 705 mmHg 30%
    23:00 +21°C° 0 mm 2 mps 705 mmHg 31%
    Show more